Location: Lynch Observatory
(39.9540°N, 75.1861°W)
Time: 11:13:08
(UTC-04:00)

CAS-4B - Pass Details

Date: 27 April 2024
Orbit: 474 x 492 km, 43.0° (Epoch: 26 May)

Event Time Altitude Azimuth Distance (km) Brightness Sun altitude
Exits shadow 05:12:00 - 285° (WNW) 1,877 ? -10.2°
Reaches altitude 10° 05:12:33 10° 284° (WNW) 1,660 ? -10.1°
Maximum altitude 05:16:16 57° 205° (SSW) 576 ? -9.5°
Drops below altitude 10° 05:20:00 10° 126° (SE) 1,669 ? -8.8°
Sets 05:22:13 0° 123° (ESE) 2,552 ? -8.5°
